EXPRESS-AM5

Last updated on Oct. 23, 2020, 5:56 a.m. UTC

1 39487U 13077A   20296.75674337 -.00000294  00000-0  00000+0 0  9995
2 39487   0.0182 312.2194 0001138  86.5726  45.3299  1.00270669 25665
UTC
Height (km)
Latitude
Longitude
Inclination
Orbital Period
UTC large
Height (km)
Speed (km/s)
/
Latitude / Longitude
Inclination (degrees)
Orbital Period (minutes)
Azimuth
Elevation
Range (km)
Doppler Factor
iOS Compass Heading
iOS Angle

Next 30 passes for location: Hong Kong

Rise time Rise Azimuth (degrees) Set time Set Azimuth (degrees) Duration Max altitude (degrees)

No matching passes for this satellites